TimeEDT,TemperatureF,Dew PointF,Humidity,Sea Level PressureIn,VisibilityMPH,Wind Direction,Wind SpeedMPH,Gust SpeedMPH,PrecipitationIn,Events,Conditions,WindDirDegrees,DateUTC
12:08 AM,75.2,73.4,94,29.95,10.0,SSW,4.6,-,N/A,,Mostly Cloudy,200,2013-08-08 04:08:00
12:18 AM,77.0,73.4,89,29.95,10.0,SSW,5.8,-,N/A,,Mostly Cloudy,200,2013-08-08 04:18:00
12:58 AM,75.7,73.6,93,29.94,10.0,SSW,5.8,-,N/A,,Mostly Cloudy,200,2013-08-08 04:58:00
1:58 AM,75.2,73.4,94,29.94,10.0,SSW,5.8,-,N/A,,Mostly Cloudy,200,2013-08-08 05:58:00
2:58 AM,74.8,72.7,93,29.93,10.0,SSW,4.6,-,N/A,,Overcast,200,2013-08-08 06:58:00
3:58 AM,74.1,72.5,95,29.92,10.0,South,6.9,-,N/A,,Mostly Cloudy,180,2013-08-08 07:58:00
4:58 AM,73.0,71.6,95,29.92,10.0,SSW,5.8,-,N/A,,Clear,210,2013-08-08 08:58:00
5:58 AM,70.9,70.3,98,29.91,10.0,NNE,2.3,-,N/A,,Clear,20,2013-08-08 09:58:00
6:33 AM,69.8,69.8,100,29.94,1.2,Calm,Calm,-,N/A,,Scattered Clouds,0,2013-08-08 10:33:00
6:38 AM,69.8,69.8,100,29.94,0.8,Calm,Calm,-,N/A,,Scattered Clouds,0,2013-08-08 10:38:00
6:43 AM,69.8,69.8,100,29.94,1.2,Calm,Calm,-,N/A,,Mostly Cloudy,0,2013-08-08 10:43:00
6:48 AM,69.8,69.8,100,29.95,4.0,ESE,3.5,-,N/A,,Mostly Cloudy,110,2013-08-08 10:48:00
6:58 AM,70.2,70.2,100,29.93,10.0,SE,3.5,-,N/A,,Overcast,130,2013-08-08 10:58:00
7:33 AM,71.6,71.6,100,29.95,10.0,ESE,3.5,-,N/A,,Overcast,120,2013-08-08 11:33:00
7:58 AM,72.7,72.0,98,29.94,10.0,ESE,4.6,-,N/A,,Overcast,120,2013-08-08 11:58:00
8:18 AM,73.4,71.6,94,29.95,10.0,SSE,3.5,-,N/A,,Mostly Cloudy,150,2013-08-08 12:18:00
8:48 AM,73.4,71.6,94,29.96,10.0,SSE,8.1,-,N/A,,Overcast,150,2013-08-08 12:48:00
8:58 AM,73.9,72.5,95,29.95,10.0,SSE,5.8,-,N/A,,Overcast,150,2013-08-08 12:58:00
9:18 AM,75.2,71.6,89,29.96,10.0,SSE,6.9,-,N/A,,Mostly Cloudy,160,2013-08-08 13:18:00
9:31 AM,77.0,71.6,83,29.96,10.0,SSE,6.9,-,N/A,,Overcast,160,2013-08-08 13:31:00
9:33 AM,77.0,71.6,83,29.96,10.0,South,8.1,-,N/A,,Overcast,180,2013-08-08 13:33:00
9:38 AM,77.0,71.6,83,29.96,10.0,South,8.1,-,N/A,,Overcast,180,2013-08-08 13:38:00
9:58 AM,76.1,72.3,88,29.96,10.0,South,8.1,-,N/A,,Overcast,190,2013-08-08 13:58:00
10:47 AM,77.0,71.6,83,29.97,10.0,South,9.2,-,N/A,,Overcast,190,2013-08-08 14:47:00
10:58 AM,77.4,72.5,85,29.97,10.0,South,8.1,-,N/A,,Overcast,170,2013-08-08 14:58:00
11:28 AM,78.8,73.4,83,29.99,10.0,Variable,6.9,-,N/A,,Overcast,0,2013-08-08 15:28:00
11:58 AM,78.8,73.4,83,29.98,10.0,SSW,6.9,-,N/A,,Overcast,210,2013-08-08 15:58:00
12:33 PM,78.8,73.4,83,29.98,10.0,South,3.5,-,N/A,,Overcast,170,2013-08-08 16:33:00
12:58 PM,78.8,73.4,83,29.96,10.0,South,4.6,-,N/A,,Overcast,190,2013-08-08 16:58:00
1:13 PM,80.6,73.4,79,29.96,10.0,Variable,3.5,-,N/A,,Mostly Cloudy,0,2013-08-08 17:13:00
1:18 PM,82.4,73.4,74,29.96,10.0,Variable,4.6,-,N/A,,Scattered Clouds,0,2013-08-08 17:18:00
1:58 PM,84.0,72.7,69,29.94,10.0,SSW,6.9,-,N/A,,Mostly Cloudy,210,2013-08-08 17:58:00
2:58 PM,87.1,72.9,62,29.93,10.0,Variable,6.9,-,N/A,,Overcast,0,2013-08-08 18:58:00
3:58 PM,87.4,70.3,57,29.92,10.0,South,6.9,-,N/A,,Mostly Cloudy,190,2013-08-08 19:58:00
4:58 PM,85.6,71.4,62,29.92,10.0,SSW,10.4,-,N/A,,Mostly Cloudy,200,2013-08-08 20:58:00
5:58 PM,83.3,72.5,70,29.90,10.0,South,6.9,-,N/A,,Mostly Cloudy,180,2013-08-08 21:58:00
6:58 PM,80.8,75.2,83,29.89,10.0,South,8.1,-,N/A,,Mostly Cloudy,190,2013-08-08 22:58:00
9:58 PM,75.2,71.6,89,29.94,10.0,SSW,5.8,-,N/A,,Mostly Cloudy,200,2013-08-09 01:58:00
10:18 PM,75.2,71.6,89,29.96,10.0,SW,5.8,-,N/A,,Mostly Cloudy,220,2013-08-09 02:18:00
10:58 PM,75.4,72.0,89,29.95,10.0,SSW,8.1,-,N/A,,Mostly Cloudy,200,2013-08-09 02:58:00
11:53 PM,75.2,73.4,94,29.96,10.0,Variable,5.8,-,N/A,,Mostly Cloudy,0,2013-08-09 03:53:00
11:58 PM,75.0,72.9,93,29.95,10.0,SSW,5.8,-,N/A,,Mostly Cloudy,200,2013-08-09 03:58:00